CAPE
7 5 3 4 4 3 2 1 2 1 1 1 1 0 0 0 0 0 0 0 0 0 0 0 0 0 0 0 0 0 0 0 0 18 19 9 1 0 0 0 0 0 0 0 0
2 2 3 3 3 3 3 2 1 1 1 2 1 0 0 0 0 0 0 0 0 0 0 0 0 0 0 0 0 0 0 0 0 6 34 47 17 0 0 0 0 0 0 0 0
1 2 3 5 4 4 2 4 2 1 1 1 1 0 0 0 0 0 0 0 0 0 0 0 0 0 0 0 0 0 0 0 0 0 16 8 29 10 0 0 0 0 0 0 0
5 2 2 1 2 2 1 1 1 2 2 1 0 0 0 0 0 0 0 0 0 0 0 0 0 0 0 0 0 0 0 0 0 0 6 3 0 0 7 6 0 0 0 0 0
4 4 4 2 2 3 2 0 1 1 0 1 0 0 0 0 0 0 0 0 0 0 0 0 0 0 0 0 0 0 0 0 0 0 0 0 0 0 0 0 0 0 0 0 0
4 5 3 4 2 1 2 2 2 1 0 1 0 0 0 0 0 0 0 0 0 0 0 0 0 0 0 0 0 0 0 0 0 0 0 0 0 0 0 0 0 0 0 0 0
4 3 1 1 1 1 1 2 1 1 1 0 0 0 0 0 0 0 0 0 0 0 0 0 0 0 0 0 0 0 0 0 0 0 0 0 0 0 0 0 0 0 0 0 0
3 4 4 4 2 1 1 1 0 0 0 0 0 0 0 0 0 0 0 0 0 0 0 0 0 0 0 0 0 0 0 0 0 0 0 0 0 0 0 0 0 0 0 0 0
2 2 4 4 1 0 0 0 0 0 0 0 0 0 0 0 0 0 0 0 0 0 0 0 0 0 0 0 0 0 0 0 0 0 0 0 0 0 0 0 0 0 0 0 0
2 2 3 2 2 1 0 0 0 0 0 0 0 0 0 0 0 0 0 0 0 0 0 0 0 0 0 0 0 0 0 0 0 0 0 0 0 0 0 0 0 0 0 0 0
3 3 2 2 1 0 0 0 0 0 0 0 0 0 0 0 0 0 0 0 0 0 0 0 0 0 0 0 0 0 0 0 0 0 0 0 0 0 0 0 0 0 0 0 0
2 3 1 0 0 0 0 0 0 0 0 0 0 0 0 0 0 0 0 0 0 0 0 0 0 0 0 0 0 0 0 0 0 0 0 0 0 0 0 0 0 0 0 0 0
1 1 1 0 0 0 0 0 0 0 0 0 0 0 0 0 0 0 0 0 0 0 0 0 0 0 0 0 0 0 0 0 0 0 0 0 0 0 0 0 0 0 0 0 0
0 0 0 0 0 0 0 0 0 0 0 0 0 0 0 0 0 0 0 0 0 0 0 0 0 0 0 0 0 0 0 0 0 0 0 0 0 0 0 0 0 0 0 0 0
0 0 0 0 0 0 0 0 0 0 5 0 0 0 0 0 0 0 0 0 0 0 0 0 0 0 0 0 0 0 0 0 0 0 0 0 0 0 0 0 0 0 0 0 0
0 0 0 0 0 0 0 0 0 3 14 0 0 0 0 0 0 0 0 0 0 0 0 0 0 0 0 0 0 0 0 0 0 0 0 0 0 0 1 0 0 0 0 0 0
0 0 0 0 0 0 0 0 1 3 0 0 0 0 0 0 1 0 6 10 3 15 20 17 4 0 0 0 0 0 0 0 0 0 0 0 0 0 0 0 0 0 0 0 0
0 0 0 0 0 0 0 0 1 1 0 0 0 0 0 0 0 5 14 22 26 34 43 26 20 31 0 0 0 0 6 4 1 8 7 0 0 2 0 0 0 0 0 0 0
0 0 0 0 0 0 0 0 0 1 0 0 0 0 0 0 0 1 26 21 19 9 16 39 47 9 0 0 0 0 1 4 0 0 0 0 0 0 0 0 0 0 0 0 0
0 0 0 0 0 0 0 0 0 0 0 0 0 0 0 0 24 24 22 8 0 1 4 12 16 34 46 3 0 6 1 10 10 0 0 0 0 4 1 1 0 0 0 0 0
0 0 0 0 0 0 0 0 0 0 0 0 0 0 0 1 18 32 16 17 1 0 12 29 22 18 42 61 41 20 0 2 4 2 14 15 0 0 1 0 1 2 0 0 0
0 0 0 0 0 0 0 0 0 0 0 0 0 0 0 1 13 31 34 64 0 0 2 35 79 11 27 24 25 20 30 40 7 0 16 32 10 1 0 3 12 1 0 1 7
0 0 0 0 0 0 0 0 0 0 0 0 0 0 1 11 16 43 48 58 36 18 22 85 54 33 8 3 18 49 42 42 32 91 33 33 0 21 1 23 28 47 39 54 10
0 0 0 0 0 0 0 0 0 0 0 0 0 0 0 14 29 38 78 52 67 72 27 29 6 6 6 0 0 0 24 80 90 34 52 25 8 47 19 27 41 45 63 52 46
0 0 0 0 0 0 0 0 0 0 0 0 0 0 5 8 5 14 23 32 84 87 41 11 5 13 18 11 5 7 3 18 26 34 16 0 8 48 39 25 48 53 43 54 44
0 0 0 0 0 0 0 0 0 0 0 0 0 0 0 0 0 1 5 19 36 53 22 42 0 30 4 21 24 12 2 12 20 13 18 4 1 2 32 51 32 36 72 13 0
0 0 0 0 0 0 0 0 0 0 0 0 0 0 0 0 0 0 0 0 0 3 6 22 38 38 11 8 7 19 16 18 14 9 18 5 31 71 18 34 48 4 60 3 0
CIN
-0 -0 -0 -0 -0 -0 -0 -0 -0 -0 -0 -0 -0 -0 -0 -0 -0 -0 -0 -0 -0 -0 -0 -0 -0 -0 -0 -0 -0 -0 -0 -0 -0 -9 -7 -8 -5 -0 -0 -0 -0 -0 -0 -0 -0
-0 -0 -0 -0 -0 -0 -0 -0 -0 -0 -0 -0 -0 -0 -0 -0 -0 -0 -0 -0 -0 -0 -0 -0 -0 -0 -0 -0 -0 -0 -0 -0 -0 -10 -14 -12 -11 -0 -0 -0 -0 -0 -0 -0 -0
-0 -0 -0 -0 -0 -0 -0 -0 -0 -0 -0 -0 -0 -0 -0 -0 -0 -0 -0 -0 -0 -0 -0 -0 -0 -0 -0 -0 -0 -0 -0 -0 -0 -1 -7 -9 -13 -18 -6 -0 -0 -2 -0 -0 -0
-0 -1 -0 -0 -0 -0 -0 -0 -0 -0 -0 -0 -0 -0 -0 -0 -0 -0 -0 -0 -0 -0 -0 -0 -0 -0 -0 -0 -0 -0 -0 -0 -0 -0 -6 -9 -0 -0 -9 -7 -0 -0 -0 -0 -0
-1 -0 -0 -0 -0 -0 -0 -0 -0 -0 -0 -0 -0 -0 -0 -0 -0 -0 -0 -0 -0 -0 -0 -0 -0 -0 -0 -0 -0 -0 -0 -0 -0 -0 -0 -0 -0 -0 -0 -0 -0 -0 -0 -0 -0
-1 -0 -0 -0 -0 -0 -0 -0 -0 -0 -0 -0 -0 -0 -0 -0 -0 -0 -0 -0 -0 -0 -0 -0 -0 -0 -0 -0 -0 -0 -0 -0 -0 -0 -0 -0 -0 -0 -0 -0 -0 -0 -0 -0 -0
-0 -0 -0 -0 -1 -1 -0 -0 -0 -0 -0 -0 -0 -0 -0 -0 -0 -0 -0 -0 -0 -0 -0 -0 -0 -0 -0 -0 -0 -0 -0 -0 -0 -0 -0 -0 -0 -0 -0 -0 -0 -0 -0 -0 -0
-0 -0 -0 -0 -0 -0 -0 -0 -0 -0 -0 -0 -0 -0 -0 -0 -0 -0 -0 -0 -0 -0 -0 -0 -0 -0 -0 -0 -0 -0 -0 -0 -0 -0 -0 -0 -0 -0 -0 -0 -0 -0 -0 -0 -0
-0 -0 -0 -0 -0 -0 -0 -0 -0 -0 -0 -0 -0 -0 -0 -0 -0 -0 -0 -0 -0 -0 -0 -0 -0 -0 -0 -0 -0 -0 -0 -0 -0 -0 -0 -0 -0 -0 -0 -0 -0 -0 -0 -0 -0
-0 -0 -0 -0 -0 -0 -0 -0 -0 -0 -0 -0 -0 -0 -0 -0 -0 -0 -0 -0 -0 -0 -0 -0 -0 -0 -0 -0 -0 -0 -0 -0 -0 -0 -0 -0 -0 -0 -0 -0 -0 -0 -0 -0 -0
-0 -0 -0 -0 -0 -0 -0 -0 -0 -0 -0 -0 -0 -0 -0 -0 -0 -0 -0 -0 -0 -0 -0 -0 -0 -0 -0 -0 -0 -0 -0 -0 -0 -0 -0 -0 -0 -0 -0 -0 -0 -0 -0 -0 -0
-0 -0 -0 -0 -0 -0 -0 -0 -0 -0 -0 -0 -0 -0 -0 -0 -0 -0 -0 -0 -0 -0 -0 -0 -0 -0 -0 -0 -0 -0 -0 -0 -0 -0 -0 -0 -0 -0 -0 -0 -0 -0 -0 -0 -0
-0 -0 -0 -0 -0 -0 -0 -0 -0 -0 -0 -0 -0 -0 -0 -0 -0 -0 -0 -0 -0 -0 -0 -0 -0 -0 -0 -0 -0 -0 -0 -0 -0 -0 -0 -0 -0 -0 -0 -0 -0 -0 -0 -0 -0
-0 -0 -0 -0 -0 -0 -0 -0 -0 -0 -0 -0 -0 -0 -0 -0 -0 -0 -0 -0 -0 -0 -0 -0 -0 -0 -0 -0 -0 -0 -0 -0 -0 -0 -0 -0 -0 -0 -0 -0 -0 -0 -0 -0 -0
-0 -0 -0 -0 -0 -0 -0 -0 -0 -0 -3 -0 -0 -0 -0 -0 -0 -0 -0 -0 -0 -0 -0 -0 -0 -0 -0 -0 -0 -0 -0 -0 -0 -0 -0 -0 -0 -0 -0 -0 -0 -0 -0 -0 -0
-0 -0 -0 -0 -0 -0 -0 -0 -0 -3 -2 -0 -0 -0 -0 -0 -0 -0 -0 -0 -0 -0 -0 -0 -0 -0 -0 -0 -0 -0 -0 -0 -0 -0 -0 -0 -0 -0 -1 -0 -0 -0 -0 -0 -0
-0 -0 -0 -0 -0 -0 -0 -0 -2 -2 -0 -0 -0 -0 -0 -0 -3 -1 -7 -8 -4 -10 -8 -8 -7 -0 -0 -0 -0 -0 -0 -0 -0 -1 -0 -3 -0 -0 -0 -0 -0 -0 -0 -0 -0
-0 -0 -0 -0 -0 -0 -0 -0 -1 -1 -0 -0 -0 -0 -0 -0 -2 -5 -3 -4 -9 -8 -9 -9 -9 -13 -0 -0 -0 -1 -6 -9 -10 -18 -15 -0 -0 -7 -0 -0 -0 -0 -0 -0 -0
-0 -0 -0 -0 -0 -0 -0 -0 -1 -1 -0 -0 -0 -0 -0 -0 -0 -5 -5 -6 -9 -11 -16 -8 -9 -46 -1 -0 -0 -5 -10 -8 -0 -1 -0 -0 -0 -0 -0 -0 -0 -0 -0 -0 -0
-0 -0 -0 -0 -0 -0 -0 -0 -0 -0 -0 -0 -0 -0 -0 -0 -5 -7 -7 -9 -0 -3 -1 -5 -9 -7 -5 -6 -3 -8 -9 -18 -8 -4 -0 -0 -0 -6 -16 -6 -2 -0 -0 -0 -0
-0 -0 -0 -0 -0 -0 -0 -0 -0 -0 -0 -0 -0 -0 -0 -3 -4 -5 -10 -9 -25 -9 -5 -6 -6 -6 -8 -4 -7 -13 -0 -7 -11 -13 -3 -9 -0 -36 -39 -0 -4 -2 -0 -0 -0
-0 -0 -0 -0 -0 -0 -0 -0 -0 -0 -0 -0 -0 -0 -0 -2 -2 -5 -6 -8 -0 -16 -8 -10 -2 -5 -7 -9 -16 -12 -10 -11 -14 -0 -8 -9 -7 -55 -0 -6 -8 -3 -0 -3 -6
-0 -0 -0 -0 -0 -0 -0 -0 -0 -0 -0 -0 -0 -0 -5 -3 -3 -4 -6 -4 -30 -25 -6 -10 -2 -2 -5 -8 -8 -4 -4 -7 -13 -7 -5 -5 -0 -18 -5 -16 -7 -7 -7 -9 -6
-0 -0 -0 -0 -0 -0 -0 -0 -0 -0 -0 -0 -0 -0 -1 -3 -5 -5 -4 -33 -10 -4 -40 -19 -12 -3 -4 -0 -0 -0 -22 -5 -16 -1 -3 -4 -5 -8 -11 -10 -9 -8 -6 -8 -9
-0 -0 -0 -0 -0 -0 -0 -0 -0 -0 -0 -0 -0 -0 -3 -2 -3 -4 -8 -12 -6 -4 -2 -3 -3 -3 -5 -5 -7 -9 -13 -9 -7 -10 -4 -0 -5 -7 -9 -12 -10 -7 -9 -12 -4
-0 -0 -0 -0 -0 -0 -0 -0 -0 -0 -0 -0 -0 -0 -0 -0 -0 -4 -4 -5 -6 -5 -12 -7 -0 -2 -3 -4 -5 -5 -4 -7 -5 -5 -5 -7 -8 -16 -10 -11 -22 -10 -11 -8 -0
-0 -0 -0 -0 -0 -0 -0 -0 -0 -0 -0 -0 -0 -0 -0 -0 -0 -0 -0 -0 -0 -3 -4 -2 -0 -2 -1 -3 -14 -7 -8 -4 -6 -5 -5 -7 -14 -27 -28 -12 -6 -8 -16 -44 -0
Wind_Speed
13 14 29 28 28 28 28 28 28 28 28 28 27 28 28 29 32 30 24 21 17 19 20 22 20 20 19 22 19 20 41 49 48 44 40 33 30 27 29 30 30 26 27 25 24
7 6 4 27 27 28 28 28 28 28 28 28 28 28 28 28 30 28 15 17 16 15 19 19 21 18 19 19 19 23 35 46 41 41 42 39 37 27 32 33 34 32 30 29 24
5 4 2 12 27 28 28 28 27 27 27 27 27 27 27 27 27 15 12 12 13 16 21 21 23 21 23 21 20 21 35 38 37 42 46 41 39 25 31 37 38 37 34 31 30
5 4 3 5 17 26 27 28 28 27 26 26 26 26 27 23 20 13 11 11 14 19 19 19 18 21 25 26 23 27 31 35 43 40 35 39 39 39 42 37 30 35 36 35 34
5 4 4 5 10 18 23 26 27 27 26 24 22 23 21 15 21 9 9 11 14 18 20 20 21 21 25 25 25 28 30 35 33 37 35 31 38 44 45 37 31 33 39 40 35
5 5 6 7 8 13 16 23 23 26 24 21 19 19 14 21 14 9 6 10 17 18 20 20 21 22 27 27 28 23 31 34 30 30 30 35 41 41 45 39 41 39 38 37 34
7 6 8 8 7 7 9 11 21 19 7 13 16 16 17 16 12 8 6 10 15 20 20 19 22 22 22 24 26 28 33 33 35 31 31 31 42 40 41 40 41 39 37 37 39
8 7 7 7 6 5 6 8 10 10 6 8 14 17 18 13 7 6 5 11 14 15 20 21 22 25 26 25 24 28 30 35 32 28 27 26 46 37 37 35 37 39 36 35 37
8 6 6 5 5 6 6 8 8 12 12 10 11 8 15 13 6 3 4 11 11 14 17 20 21 23 20 26 28 25 33 29 29 17 25 23 34 32 21 24 29 36 35 34 34
9 7 4 2 4 6 8 9 14 17 14 11 6 10 12 9 5 10 7 12 12 13 17 17 19 22 22 25 31 30 29 30 26 16 23 28 32 31 19 23 29 32 36 37 31
12 7 2 3 6 7 8 13 13 13 11 8 10 8 10 12 11 8 7 8 10 14 22 11 20 23 25 25 29 31 32 29 23 23 26 33 36 36 32 32 31 31 31 34 35
15 10 3 6 8 9 11 13 17 12 10 10 9 9 9 9 6 8 9 11 10 20 16 22 24 27 25 25 27 29 31 33 32 28 31 37 41 40 38 37 40 37 34 34 32
20 12 3 7 11 13 15 17 11 12 10 13 13 11 12 13 10 5 3 10 17 18 20 25 26 19 23 23 26 28 30 31 31 29 32 38 44 44 38 36 36 36 36 33 32
23 17 4 9 14 16 14 15 11 13 11 14 12 13 12 10 6 8 5 1 16 21 23 24 25 20 21 24 24 30 27 27 29 31 34 21 37 24 19 20 21 22 23 25 25
28 23 5 12 13 13 15 12 14 13 15 15 13 15 10 9 16 8 7 4 3 22 19 25 20 23 26 24 25 30 27 28 31 34 36 35 35 33 27 21 17 17 19 20 21
29 27 14 11 9 16 12 12 13 12 14 13 12 10 7 5 2 6 7 2 4 8 18 31 30 24 26 30 29 29 30 32 33 34 40 35 33 30 24 18 13 12 17 20 21
29 6 13 15 16 19 12 10 13 11 18 13 12 8 4 4 0 0 2 3 4 7 10 10 24 21 27 31 31 26 30 36 36 28 34 23 22 27 21 13 14 19 24 23 23
28 13 9 9 15 15 11 9 10 14 14 16 12 8 6 6 4 5 6 8 11 13 19 29 35 22 22 22 29 27 30 35 38 35 32 11 26 24 21 13 17 22 25 24 22
23 9 7 10 16 13 9 7 7 19 18 16 14 10 9 7 6 11 9 12 18 27 21 30 30 22 22 24 24 32 32 30 38 41 42 39 39 29 15 18 18 21 20 22 22
20 12 8 14 15 10 6 4 12 15 15 14 14 14 14 14 11 8 11 17 19 22 23 30 38 29 22 20 23 28 26 27 28 36 39 35 32 32 11 13 15 20 21 22 21
17 15 17 15 13 7 6 8 17 17 16 14 15 13 15 17 16 16 17 20 17 21 24 26 31 34 25 19 24 22 32 30 35 27 30 35 28 14 11 14 17 19 23 23 26
18 17 18 16 11 10 9 16 18 14 12 11 12 13 16 18 18 18 20 19 22 22 25 26 27 33 29 27 23 28 22 29 37 34 36 39 43 33 21 23 18 23 24 28 32
21 16 17 17 16 14 13 12 11 13 15 15 14 15 17 19 21 18 17 20 16 23 25 25 25 30 29 20 10 23 25 28 26 35 41 38 40 16 15 21 28 36 41 38 35
21 20 19 17 16 16 17 13 15 17 16 15 16 16 17 18 16 16 11 13 16 21 20 25 34 36 39 37 23 28 28 27 33 31 36 37 47 44 45 42 43 44 44 43 38
20 21 20 19 19 18 13 13 14 17 17 18 17 17 19 20 19 14 13 8 3 7 16 20 39 38 39 41 41 41 38 26 19 22 34 47 51 48 48 48 50 47 43 41 39
22 22 21 14 14 15 14 14 16 18 21 17 18 18 19 18 16 14 10 4 1 7 8 3 32 34 40 38 40 44 42 40 40 42 45 51 54 49 49 47 45 43 42 42 42
23 16 18 19 15 15 16 16 17 19 19 15 18 17 17 17 13 9 3 3 6 7 9 13 21 27 33 29 34 37 38 39 34 23 27 44 47 44 45 45 47 47 46 47 47
Wind_Direction
34 33 312 305 307 306 302 298 297 297 297 294 293 295 294 293 287 283 290 293 297 297 291 287 285 282 279 274 268 268 262 259 257 261 263 270 269 270 269 267 268 272 273 285 294
26 28 275 296 299 303 301 296 293 292 293 292 291 292 292 296 290 288 304 307 304 299 289 285 282 280 273 274 265 258 264 260 265 265 265 269 267 267 264 265 264 270 272 279 286
352 349 337 265 295 298 298 298 293 289 288 290 291 292 292 297 296 310 323 316 307 296 290 288 282 278 274 270 264 259 265 269 269 266 264 270 267 266 261 263 263 268 271 276 277
353 332 319 268 269 286 289 293 295 292 293 291 292 291 289 301 303 323 331 319 308 294 294 294 289 278 273 270 270 264 270 271 267 268 273 266 271 267 267 270 271 268 273 274 273
348 331 307 282 259 265 270 280 292 296 299 308 316 311 313 319 303 355 334 319 308 300 293 291 287 283 276 277 271 271 271 272 275 271 275 275 267 268 267 274 278 275 271 269 270
333 316 293 281 263 252 252 267 265 295 311 322 329 329 336 302 343 356 341 325 301 301 295 292 290 290 284 280 275 275 277 273 276 277 275 273 271 271 266 270 272 271 271 268 267
323 312 293 278 262 237 228 228 255 240 148 357 331 334 325 314 341 2 352 324 311 297 294 296 292 288 293 286 280 279 278 277 271 274 275 279 272 271 273 270 268 269 275 270 267
324 313 293 274 251 217 203 208 205 185 79 52 340 327 314 342 358 5 15 330 318 310 295 295 293 285 284 286 287 280 278 276 277 271 273 274 270 277 276 268 265 271 274 271 271
319 324 299 263 228 202 179 172 148 91 91 78 25 14 330 345 347 39 20 336 334 316 306 301 293 285 288 280 280 275 275 276 280 277 278 270 278 285 275 276 276 270 269 271 269
309 315 314 230 183 164 170 139 82 73 85 98 111 17 334 341 359 336 353 331 331 323 309 301 294 285 281 274 271 279 272 274 275 284 280 276 278 277 283 280 280 276 269 267 271
299 300 5 127 132 140 138 86 78 76 107 120 92 146 28 339 332 330 335 336 329 315 296 305 288 282 283 280 278 285 280 278 285 279 285 279 279 277 279 278 279 278 276 269 267
294 286 268 104 111 116 103 72 57 68 73 90 104 150 128 57 14 328 326 315 309 300 302 293 289 283 288 286 283 280 278 277 280 283 283 281 277 278 276 276 272 273 273 270 271
297 282 228 113 94 81 71 56 78 69 79 71 71 95 106 132 130 104 333 309 303 301 295 289 297 301 292 285 283 281 279 279 282 286 287 285 278 278 277 275 273 271 271 271 272
302 287 178 104 64 57 65 52 64 61 64 70 73 78 92 105 114 132 93 306 309 297 296 290 292 295 291 285 285 281 288 283 283 284 282 295 281 290 294 286 281 278 276 275 273
314 299 121 60 48 52 40 52 52 70 45 53 57 54 81 118 39 92 98 127 206 301 301 291 291 288 283 286 290 283 292 285 285 282 282 281 281 286 282 281 280 280 285 285 282
312 313 38 52 64 34 49 56 61 46 37 44 56 58 85 107 117 39 33 99 348 323 301 287 285 291 284 286 289 289 286 284 282 281 276 280 276 278 286 283 277 287 295 290 287
304 355 31 25 20 15 42 60 30 33 25 36 33 46 35 18 140 211 274 263 282 300 303 285 288 284 285 285 282 283 282 280 278 273 278 283 279 273 300 298 295 292 295 293 290
295 21 42 39 19 23 40 40 24 21 14 18 15 6 346 351 315 301 287 298 301 297 304 302 291 296 285 278 281 279 279 275 276 276 279 287 282 296 284 286 296 296 295 294 291
288 41 50 48 15 25 40 30 12 4 9 7 4 351 348 341 346 337 319 311 312 306 308 303 300 310 294 292 284 275 273 285 279 277 276 275 283 294 286 286 292 297 303 302 293
23 35 50 32 22 35 36 7 360 9 5 5 357 4 354 354 344 324 333 335 326 315 311 302 293 296 297 291 282 278 284 281 280 275 274 277 281 287 262 271 286 299 302 303 304
29 27 33 34 30 40 29 11 3 1 4 5 358 347 341 336 331 320 320 321 323 312 310 305 298 292 296 285 281 281 272 275 278 275 281 275 280 310 311 299 309 307 307 306 303
25 21 25 29 22 44 27 13 1 357 1 351 350 347 345 343 337 328 322 325 325 314 310 307 301 293 293 289 286 282 275 273 271 271 273 276 269 279 305 301 309 307 307 303 301
12 15 29 28 25 16 5 2 1 357 0 4 357 351 346 341 335 333 335 340 330 314 314 307 301 295 296 292 268 285 281 277 276 277 270 272 271 291 308 301 297 296 294 299 300
14 15 19 19 20 17 8 8 13 6 0 5 356 348 347 342 342 344 335 354 340 323 320 303 285 280 273 270 286 283 283 282 276 274 276 273 271 276 281 291 288 291 293 294 297
15 11 11 11 9 5 8 2 5 7 8 1 5 4 359 353 356 353 355 351 346 354 328 310 262 273 276 270 271 265 272 287 282 284 281 272 271 277 282 286 289 292 297 298 297
8 5 4 358 5 9 11 16 9 4 0 0 357 2 6 1 1 357 1 6 341 213 209 209 276 274 265 272 274 266 271 277 278 279 279 269 270 282 287 294 296 297 299 298 298
4 12 8 5 9 7 11 9 3 0 9 17 13 10 8 9 13 15 43 181 187 183 195 197 264 284 276 291 275 259 266 275 284 288 292 283 284 293 294 296 298 300 300 298 299